"2009-08-23 00:00:00",1175329,2.997,95.7,5.077,0.281,25.04,112.2548,30.69,31.7,12.3,0,111.6,13.04,31.55,57.7
"2009-08-23 00:00:30",1175330,2.629,97.9,6.622,0.434,25.03,112.2535,30.69,31.69,12.22,0,111.6,13.04,31.55,59.9
"2009-08-23 00:01:00",1175331,2.484,91.1,8.93,0.619,25.08,112.2551,30.69,31.7,12.21,0,111.6,13.04,31.55,53.1
"2009-08-23 00:01:30",1175332,3.656,115.2,8.55,0.339,25.07,112.2557,30.7,31.69,12.34,0,111.6,13.04,31.55,77.2
"2009-08-23 00:02:00",1175333,3.391,118,6.118,0.434,25.1,112.257,30.7,31.69,12.44,0,111.6,13.04,31.56,80.0
"2009-08-23 00:02:30",1175334,3.023,113.1,5.121,0.604,25.1,112.257,30.7,31.7,12.51,0,111.6,13.04,31.56,75.1
"2009-08-23 00:03:00",1175335,4.15,106.1,3.385,0.244,24.98,112.2526,30.69,31.67,12.43,0,111.6,13.04,31.55,68.1
"2009-08-23 00:03:30",1175336,3.812,119.1,7.594,0.08,24.99,112.2487,30.68,31.67,12.43,0,111.6,13.04,31.54,81.1
"2009-08-23 00:04:00",1175337,3.698,119.4,4.298,0.199,25.04,112.2524,30.69,31.64,12.49,0,111.6,13.04,31.55,81.4
"2009-08-23 00:04:30",1175338,3.181,119.3,3.185,0.323,25.03,112.2608,30.71,31.65,12.43,0,111.6,13.04,31.57,81.3
"2009-08-23 00:05:00",1175339,2.874,124.2,2.826,0.268,25.01,112.2611,30.71,31.66,12.42,0,111.6,13.04,31.57,86.2
"2009-08-23 00:05:30",1175340,2.867,127.2,4.974,0.215,24.99,112.2605,30.71,31.66,12.42,0,111.6,13.04,31.57,89.2
"2009-08-23 00:06:00",1175341,3.287,117.3,5.052,0.25,24.97,112.2614,30.71,31.66,12.38,0,111.6,13.04,31.57,79.3
"2009-08-23 00:06:30",1175342,3.678,117.6,3.344,0.162,24.95,112.2605,30.71,31.67,12.29,0,111.6,13.04,31.57,79.6
"2009-08-23 00:07:00",1175343,3.679,118.6,3.809,0.101,24.99,112.2626,30.71,31.68,12.17,0,111.6,13.04,31.57,80.6
"2009-08-23 00:07:30",1175344,3.376,118.7,4.968,0.182,25.01,112.2641,30.72,31.69,12.29,0,111.6,13.04,31.58,80.7
"2009-08-23 00:08:00",1175345,3.488,114.5,5.108,0.225,25.06,112.2654,30.72,31.68,12.42,0,111.6,13.04,31.58,76.5
"2009-08-23 00:08:30",1175346,3.733,103.4,2.462,0.204,25.01,112.2691,30.73,31.7,12.32,0,111.6,13.04,31.59,65.4
"2009-08-23 00:09:00",1175347,3.603,109.4,2.646,0.18,25,112.2711,30.74,31.71,12.2,0,111.6,13.04,31.59,71.4
"2009-08-23 00:09:30",1175348,3.159,113.8,6.192,0.221,25.02,112.2707,30.73,31.71,12.27,0,111.6,13.04,31.59,75.8
"2009-08-23 00:10:00",1175349,3.622,104.9,3.959,0.296,25.01,112.2701,30.73,31.72,12.26,0,111.6,13.03,31.59,66.9
"2009-08-23 00:10:30",1175350,4.008,105.7,3.254,0.126,25,112.2717,30.74,31.72,12.33,0,111.6,13.03,31.60,67.7
"2009-08-23 00:11:00",1175351,3.805,104,5.63,0.177,25.04,112.274,30.74,31.73,12.38,0,111.6,13.03,31.60,66.0
"2009-08-23 00:11:30",1175352,3.176,105.5,5.209,0.331,25.03,112.2737,30.74,31.72,12.4,0,111.6,13.03,31.60,67.5
"2009-08-23 00:12:00",1175353,2.553,114.7,7.473,0.403,25.04,112.2759,30.75,31.74,12.4,0,111.6,13.03,31.61,76.7
"2009-08-23 00:12:30",1175354,2.56,88.7,8.76,0.305,25.06,112.277,30.75,31.73,12.45,0,111.6,13.03,31.61,50.7
"2009-08-23 00:13:00",1175355,2.087,88.8,5.551,0.188,25.05,112.2765,30.75,31.74,12.44,0,111.6,13.03,31.61,50.8
"2009-08-23 00:13:30",1175356,2.093,91.9,4.492,0.226,24.99,112.2712,30.74,31.73,12.49,0,111.6,13.03,31.59,53.9
"2009-08-23 00:14:00",1175357,2.069,97.8,3.73,0.164,25,112.2717,30.74,31.73,12.48,0,111.6,13.03,31.60,59.8
"2009-08-23 00:14:30",1175358,2.722,90.2,3.836,0.28,25.02,112.2728,30.74,31.72,12.44,0,111.6,13.03,31.60,52.2
"2009-08-23 00:15:00",1175359,3.03,89.7,4.544,0.216,25.05,112.2782,30.75,31.72,12.46,0,111.6,13.03,31.61,51.7
"2009-08-23 00:15:30",1175360,3.023,77.79,4.24,0.226,25.02,112.2868,30.78,31.73,12.49,0,111.6,13.03,31.63,39.8
"2009-08-23 00:16:00",1175361,2.91,86.2,3.215,0.325,25.05,112.2947,30.8,31.75,12.59,0,111.6,13.03,31.66,48.2
"2009-08-23 00:16:30",1175362,3.138,81.6,4.716,0.201,25.06,112.2955,30.8,31.74,12.58,0,111.6,13.04,31.66,43.6
"2009-08-23 00:17:00",1175363,3.112,87,3.806,0.32,25.08,112.2972,30.8,31.75,12.59,0,111.6,13.04,31.66,49.0
"2009-08-23 00:17:30",1175364,4.141,90.6,3.197,0.36,25.12,112.2992,30.81,31.77,12.65,0,111.6,13.04,31.67,52.6
"2009-08-23 00:18:00",1175365,3.697,98.6,2.969,0.278,25.11,112.3039,30.82,31.79,12.63,0,111.6,13.04,31.68,60.6
"2009-08-23 00:18:30",1175366,3.456,95.3,4.349,0.376,25.1,112.3056,30.82,31.8,12.65,0,111.6,13.04,31.68,57.3
"2009-08-23 00:19:00",1175367,3.298,96,4.304,0.136,25.14,112.3056,30.82,31.8,12.64,0,111.6,13.04,31.68,58.0
"2009-08-23 00:19:30",1175368,3.037,96.4,2.409,0.227,25.1,112.3062,30.83,31.81,12.7,0,111.6,13.04,31.68,58.4
"2009-08-23 00:20:00",1175369,2.668,95.8,3.507,0.126,25,112.3101,30.84,31.82,12.7,0,111.6,13.04,31.69,57.8
"2009-08-23 00:20:30",1175370,3.577,81.3,3.993,0.233,25.14,112.3151,30.85,31.83,12.68,0,111.6,13.04,31.71,43.3
"2009-08-23 00:21:00",1175371,2.828,83.5,3.107,0.286,25.14,112.323,30.87,31.84,12.69,0,111.6,13.04,31.73,45.5
"2009-08-23 00:21:30",1175372,3.365,86.2,6.958,0.315,25.16,112.325,30.87,31.85,12.69,0,111.6,13.04,31.73,48.2
"2009-08-23 00:22:00",1175373,3.811,86.2,4.593,0.266,25.2,112.3227,30.87,31.83,12.66,0,111.6,13.04,31.73,48.2
"2009-08-23 00:22:30",1175374,3.632,89.3,6.048,0.299,25.14,112.316,30.85,31.84,12.53,0,111.6,13.04,31.71,51.3
"2009-08-23 00:23:00",1175375,4.04,95.2,2.437,0.187,25.19,112.3154,30.85,31.84,12.44,0,111.6,13.04,31.71,57.2
"2009-08-23 00:23:30",1175376,4.027,88.2,3.046,0.143,25.15,112.3121,30.84,31.83,12.3,0,111.6,13.04,31.70,50.2
"2009-08-23 00:24:00",1175377,3.737,89.2,4.081,0.19,25.17,112.309,30.83,31.82,12.23,0,111.6,13.04,31.69,51.2
"2009-08-23 00:24:30",1175378,3.871,95,5.465,0.336,25.18,112.307,30.83,31.83,12.37,0,111.6,13.04,31.69,57.0
"2009-08-23 00:25:00",1175379,3.333,101,5.633,0.171,25.16,112.3059,30.82,31.83,12.48,0,111.6,13.04,31.68,63.0
"2009-08-23 00:25:30",1175380,3.344,102.4,4.224,0.292,25.19,112.3059,30.82,31.82,12.48,0,111.6,13.04,31.68,64.4
"2009-08-23 00:26:00",1175381,2.861,99.8,3.763,0.373,25.19,112.3059,30.82,31.83,12.56,0,111.6,13.04,31.68,61.8
"2009-08-23 00:26:30",1175382,3.547,114.2,4.963,0.197,25.14,112.3069,30.83,31.84,12.45,0,111.6,13.04,31.69,76.2
"2009-08-23 00:27:00",1175383,3.699,101.5,2.463,0.191,25.18,112.306,30.82,31.83,12.43,0,111.6,13.04,31.68,63.5
"2009-08-23 00:27:30",1175384,3.625,95.6,3.048,0.216,25.16,112.3057,30.82,31.83,12.49,0,111.6,13.03,31.68,57.6
"2009-08-23 00:28:00",1175385,3.96,100,2.928,0.167,25.17,112.3051,30.82,31.84,12.36,0,111.6,13.03,31.68,62.0
"2009-08-23 00:28:30",1175386,3.939,100.5,2.207,0.114,25.19,112.3025,30.82,31.83,12.13,0,111.6,13.03,31.68,62.5
"2009-08-23 00:29:00",1175387,3.817,101.1,3.142,0.166,25.19,112.3013,30.81,31.83,12.08,0,111.6,13.03,31.67,63.1
"2009-08-23 00:29:30",1175388,3.824,102.1,1.714,0.101,25.2,112.3022,30.82,31.84,12.29,0,111.6,13.03,31.67,64.1
"2009-08-23 00:30:00",1175389,3.898,100.9,3.164,0.307,25.19,112.3022,30.82,31.83,12.38,0,111.6,13.03,31.67,62.9
"2009-08-23 00:30:30",1175390,3.882,101.6,5.25,0.205,25.2,112.3032,30.82,31.83,12.46,0,111.6,13.03,31.68,63.6
"2009-08-23 00:31:00",1175391,3.615,102.3,3.66,0.177,25.22,112.3009,30.81,31.82,12.68,0,111.6,13.03,31.67,64.3
"2009-08-23 00:31:30",1175392,3.859,101.9,2.18,0.284,25.18,112.3022,30.82,31.83,12.79,0,111.6,13.03,31.67,63.9
"2009-08-23 00:32:00",1175393,4.348,102.4,1.585,0.323,25.16,112.3031,30.82,31.82,12.8,0,111.6,13.03,31.68,64.4
"2009-08-23 00:32:30",1175394,4.311,102.4,2.644,0.111,25.14,112.3009,30.81,31.82,12.85,0,111.6,13.03,31.67,64.4
"2009-08-23 00:33:00",1175395,4.106,98.6,4.167,0.327,25.18,112.2861,30.77,31.81,12.88,0,111.6,13.04,31.63,60.6
"2009-08-23 00:33:30",1175396,3.972,95.9,3.557,0.346,25.18,112.2821,30.76,31.8,12.94,0,111.6,13.04,31.62,57.9
"2009-08-23 00:34:00",1175397,4.248,101,2.672,0.253,25.25,112.2812,30.76,31.8,13.03,0,111.6,13.04,31.62,63.0
"2009-08-23 00:34:30",1175398,4.131,94.8,3.209,0.235,25.21,112.2783,30.75,31.8,13.13,0,111.6,13.04,31.61,56.8
"2009-08-23 00:35:00",1175399,4.082,106.6,4.19,0.344,25.18,112.2724,30.74,31.78,13.24,0,111.6,13.04,31.60,68.6
"2009-08-23 00:35:30",1175400,3.793,113.2,2.568,0.16,25.17,112.273,30.74,31.77,13.11,0,111.6,13.04,31.60,75.2
"2009-08-23 00:36:00",1175401,4.118,108.3,1.466,0.154,25.19,112.273,30.74,31.76,12.88,0,111.6,13.04,31.60,70.3
"2009-08-23 00:36:30",1175402,3.941,104.8,1.272,0.213,25.15,112.2713,30.74,31.75,12.96,0,111.6,13.04,31.59,66.8
"2009-08-23 00:37:00",1175403,3.647,107.4,1.701,0.118,25.17,112.2629,30.71,31.74,13.16,0,111.6,13.04,31.57,69.4
"2009-08-23 00:37:30",1175404,3.643,107.3,1.299,0.08,25.14,112.2517,30.69,31.73,13.31,0,111.6,13.04,31.54,69.3
"2009-08-23 00:38:00",1175405,3.979,106.2,1.87,0.21,25.07,112.2481,30.68,31.73,13.4,0,111.6,13.04,31.53,68.2
"2009-08-23 00:38:30",1175406,4.685,102.4,3.626,0.232,25.12,112.245,30.67,31.71,13.68,0,111.6,13.04,31.53,64.4
"2009-08-23 00:39:00",1175407,4.413,100.6,1.574,0.144,25.14,112.2394,30.65,31.69,13.49,0,111.6,13.04,31.51,62.6
"2009-08-23 00:39:30",1175408,4.441,103.4,3.303,0.272,25.13,112.2391,30.65,31.7,13.76,0,111.5,13.04,31.51,65.4
"2009-08-23 00:40:00",1175409,4.433,105.5,2.236,0.214,25.11,112.2349,30.64,31.71,13.84,0,111.5,13.04,31.50,67.5
"2009-08-23 00:40:30",1175410,4.204,105.2,1.529,0.217,25.08,112.2204,30.6,31.68,13.87,0,111.5,13.04,31.46,67.2
"2009-08-23 00:41:00",1175411,4.151,105.3,2.702,0.098,25.14,112.2131,30.59,31.67,13.84,0,111.5,13.05,31.44,67.3
"2009-08-23 00:41:30",1175412,3.981,105.3,2.828,0.185,25.15,112.2069,30.57,31.66,13.76,0,111.6,13.05,31.43,67.3
"2009-08-23 00:42:00",1175413,3.622,109.5,1.528,0.095,25.16,112.2058,30.57,31.65,13.79,0,111.6,13.04,31.43,71.5
"2009-08-23 00:42:30",1175414,3.937,113.9,1.968,0.206,25.12,112.2058,30.57,31.63,13.8,0,111.6,13.04,31.43,75.9
"2009-08-23 00:43:00",1175415,3.853,115.7,1.457,0.125,25.09,112.2022,30.56,31.63,13.75,0,111.6,13.04,31.42,77.7
"2009-08-23 00:43:30",1175416,4.109,108.4,4.999,0.292,25.13,112.1955,30.54,31.61,13.67,0,111.6,13.05,31.40,70.4
"2009-08-23 00:44:00",1175417,3.871,110.5,6.87,0.532,25.17,112.1867,30.52,31.61,13.56,0,111.6,13.05,31.38,72.5
"2009-08-23 00:44:30",1175418,4.248,110.1,1.269,0.09,25.17,112.1846,30.51,31.59,13.73,0,111.6,13.04,31.37,72.1
"2009-08-23 00:45:00",1175419,4.033,108.6,2.295,0.268,25.17,112.1846,30.51,31.59,13.7,0,111.6,13.04,31.37,70.6
"2009-08-23 00:45:30",1175420,3.985,107.4,2.805,0.121,25.14,112.1819,30.51,31.58,13.73,0,111.6,13.03,31.36,69.4
"2009-08-23 00:46:00",1175421,3.752,102.9,1.679,0.221,25.18,112.1796,30.5,31.57,13.64,0,111.5,13.03,31.36,64.9
"2009-08-23 00:46:30",1175422,3.585,97.7,2.316,0.136,25.13,112.1794,30.5,31.56,13.58,0,111.5,13.03,31.36,59.7
"2009-08-23 00:47:00",1175423,3.518,102.9,5.143,0.114,25.15,112.1828,30.51,31.55,13.57,0,111.5,13.03,31.37,64.9
"2009-08-23 00:47:30",1175424,3.502,106.2,3.167,0.088,25.19,112.1828,30.51,31.55,13.63,0,111.5,13.03,31.37,68.2
"2009-08-23 00:48:00",1175425,3.586,111.8,2.521,0.165,25.19,112.1836,30.51,31.55,13.58,0,111.5,13.03,31.37,73.8
"2009-08-23 00:48:30",1175426,3.678,107.9,3.174,0.188,25.19,112.1814,30.5,31.55,13.38,0,111.6,13.03,31.36,69.9
"2009-08-23 00:49:00",1175427,4.085,100,2.29,0.13,25.22,112.1786,30.5,31.53,13.22,0,111.6,13.03,31.36,62.0
"2009-08-23 00:49:30",1175428,4.19,101.9,1.5,0.189,25.23,112.1695,30.47,31.54,13.52,0,111.5,13.04,31.33,63.9
"2009-08-23 00:50:00",1175429,3.39,111.2,6.12,0.183,25.18,112.1633,30.46,31.52,13.64,0,111.5,13.04,31.32,73.2
"2009-08-23 00:50:30",1175430,3.146,115.4,2.407,0.084,25.22,112.1633,30.46,31.51,13.7,0,111.5,13.04,31.32,77.4
"2009-08-23 00:51:00",1175431,3.026,118.2,2.26,0.074,25.24,112.1635,30.46,31.5,13.75,0,111.5,13.05,31.32,80.2
"2009-08-23 00:51:30",1175432,3.069,113.6,1.885,0.08,25.19,112.1575,30.44,31.5,13.79,0,111.5,13.05,31.30,75.6
"2009-08-23 00:52:00",1175433,3.141,113.3,1.455,0.069,25.18,112.1564,30.44,31.5,13.75,0,111.5,13.05,31.30,75.3
"2009-08-23 00:52:30",1175434,3.02,114.2,2.015,0.097,25.18,112.1574,30.44,31.5,13.74,0,111.6,13.05,31.30,76.2
"2009-08-23 00:53:00",1175435,3.258,116.5,1.279,0.107,25.18,112.1564,30.44,31.48,13.8,0,111.5,13.05,31.30,78.5
"2009-08-23 00:53:30",1175436,3.486,114.9,1.978,0.07,25.18,112.159,30.45,31.48,13.8,0,111.6,13.05,31.30,76.9
"2009-08-23 00:54:00",1175437,3.823,107.3,2.037,0.252,25.18,112.1524,30.43,31.47,13.79,0,111.5,13.05,31.29,69.3
"2009-08-23 00:54:30",1175438,3.747,104.4,2.968,0.072,25.16,112.1496,30.42,31.46,13.68,0,111.5,13.05,31.28,66.4
"2009-08-23 00:55:00",1175439,3.703,109.1,5.634,0.185,25.18,112.1468,30.42,31.45,13.74,0,111.5,13.05,31.27,71.1
"2009-08-23 00:55:30",1175440,3.789,117.1,2.93,0.115,25.14,112.1408,30.4,31.45,13.89,0,111.5,13.05,31.26,79.1
"2009-08-23 00:56:00",1175441,3.826,114,1.116,0.053,25.11,112.1391,30.4,31.42,13.73,0,111.5,13.05,31.25,76.0
"2009-08-23 00:56:30",1175442,3.709,112.8,2.312,0.135,25.15,112.1396,30.4,31.44,13.73,0,111.5,13.05,31.25,74.8
"2009-08-23 00:57:00",1175443,3.661,114.5,1.926,0.071,25.17,112.1359,30.39,31.42,13.86,0,111.5,13.05,31.24,76.5
"2009-08-23 00:57:30",1175444,3.635,111.3,1.12,0.101,25.2,112.1337,30.38,31.42,13.9,0,111.5,13.05,31.24,73.3
"2009-08-23 00:58:00",1175445,3.657,110.1,3.488,0.072,25.18,112.1326,30.38,31.42,13.86,0,111.5,13.05,31.24,72.1
"2009-08-23 00:58:30",1175446,4.036,110.4,3.257,0.18,25.18,112.1316,30.38,31.41,13.84,0,111.5,13.05,31.23,72.4
"2009-08-23 00:59:00",1175447,3.864,115.7,1.043,0.185,25.18,112.1312,30.38,31.4,13.9,0,111.5,13.05,31.23,77.7
"2009-08-23 00:59:30",1175448,3.603,114.7,1.632,0.076,25.2,112.1245,30.36,31.4,13.92,0,111.5,13.05,31.22,76.7
"2009-08-23 01:00:00",1175449,3.57,113,1.022,0.073,25.26,112.1203,30.35,31.4,13.94,0,111.5,13.05,31.20,75.0
"2009-08-23 01:00:30",1175450,3.733,113.3,1.484,0.091,25.21,112.1169,30.34,31.39,13.94,0,111.5,13.05,31.20,75.3
"2009-08-23 01:01:00",1175451,3.892,114.1,0.869,0.047,25.12,112.1147,30.33,31.39,13.88,0,111.5,13.05,31.19,76.1
"2009-08-23 01:01:30",1175452,3.877,116,1.022,0.097,25.17,112.1105,30.32,31.38,13.88,0,111.5,13.05,31.18,78.0
"2009-08-23 01:02:00",1175453,3.822,116.7,0.971,0.058,25.2,112.108,30.32,31.37,13.83,0,111.5,13.05,31.17,78.7
"2009-08-23 01:02:30",1175454,4.11,116.8,1.414,0.16,25.22,112.108,30.32,31.37,13.85,0,111.5,13.04,31.17,78.8
"2009-08-23 01:03:00",1175455,4.284,116.1,0.962,0.044,25.3,112.1007,30.3,31.35,13.96,0,111.5,13.04,31.15,78.1
"2009-08-23 01:03:30",1175456,4.172,115.6,0.786,0.084,25.24,112.0996,30.29,31.35,13.98,0,111.5,13.04,31.15,77.6
"2009-08-23 01:04:00",1175457,4.144,115.6,1.785,0.148,25.25,112.1002,30.3,31.34,13.99,0,111.5,13.04,31.15,77.6
"2009-08-23 01:04:30",1175458,4.188,115.2,0.803,0.04,25.24,112.0983,30.29,31.33,14.03,0,111.5,13.04,31.15,77.2
"2009-08-23 01:05:00",1175459,4.27,116,0.686,0.078,25.3,112.0934,30.28,31.31,14.08,0,111.5,13.04,31.14,78.0
"2009-08-23 01:05:30",1175460,4.326,118,1.832,0.175,25.29,112.082,30.25,31.31,14.2,0,111.5,13.04,31.11,80.0
"2009-08-23 01:06:00",1175461,4.189,119.4,1.96,0.134,25.34,112.0787,30.24,31.3,14.27,0,111.5,13.04,31.10,81.4
"2009-08-23 01:06:30",1175462,4.316,120,1.299,0.12,25.36,112.0741,30.23,31.31,14.33,0,111.5,13.05,31.09,82.0
"2009-08-23 01:07:00",1175463,4.221,119.8,2.134,0.087,25.43,112.0741,30.23,31.28,14.34,0,111.5,13.05,31.09,81.8
"2009-08-23 01:07:30",1175464,4.485,119,1.409,0.101,25.42,112.0733,30.23,31.27,14.37,0,111.5,13.05,31.08,81.0
"2009-08-23 01:08:00",1175465,4.482,120.3,0.636,0.081,25.45,112.0655,30.21,31.26,14.38,0,111.5,13.05,31.06,82.3
"2009-08-23 01:08:30",1175466,4.464,120.6,0.575,0.078,25.47,112.049,30.16,31.23,14.42,0,111.5,13.05,31.02,82.6
"2009-08-23 01:09:00",1175467,4.758,121,1.098,0.133,25.54,112.0417,30.14,31.22,14.53,0,111.5,13.05,31.00,83.0
"2009-08-23 01:09:30",1175468,4.905,119.7,1.135,0.049,25.48,112.0383,30.14,31.21,14.44,0,111.5,13.05,30.99,81.7
"2009-08-23 01:10:00",1175469,5.084,122.2,1.31,0.115,25.47,112.0173,30.08,31.18,14.61,0,111.5,13.05,30.94,84.2
"2009-08-23 01:10:30",1175470,5.062,120.4,2.439,0.102,25.48,112.0081,30.06,31.16,14.64,0,111.5,13.05,30.91,82.4
"2009-08-23 01:11:00",1175471,4.971,118.3,2.573,0.148,25.51,112.0047,30.05,31.13,14.65,0,111.5,13.05,30.91,80.3
"2009-08-23 01:11:30",1175472,4.982,118.3,1.592,0.161,25.47,111.9831,29.99,31.11,14.69,0,111.5,13.05,30.85,80.3
"2009-08-23 01:12:00",1175473,4.706,119.1,1.273,0.072,25.46,111.9751,29.97,31.08,14.73,0,111.5,13.05,30.83,81.1
"2009-08-23 01:12:30",1175474,4.76,121,0.586,0.074,25.55,111.9683,29.96,31.07,15.26,0,111.5,13.05,30.81,83.0
"2009-08-23 01:13:00",1175475,4.755,119.7,0.725,0.097,25.47,111.9487,29.91,31.04,15.42,0,111.5,13.05,30.76,81.7
"2009-08-23 01:13:30",1175476,4.841,121.8,1.609,0.089,25.49,111.9439,29.89,31.02,15.41,0,111.5,13.06,30.75,83.8
"2009-08-23 01:14:00",1175477,4.707,119.2,1.976,0.14,25.47,111.9407,29.88,30.99,15.33,0,111.5,13.06,30.74,81.2
"2009-08-23 01:14:30",1175478,4.527,121.3,2.008,0.146,25.46,111.9244,29.84,30.96,15.44,0,111.5,13.06,30.70,83.3
"2009-08-23 01:15:00",1175479,4.683,125.7,1.028,0.059,25.5,111.92,29.83,30.94,15.7,0,111.5,13.06,30.69,87.7
"2009-08-23 01:15:30",1175480,4.798,124.1,1.088,0.092,25.45,111.9191,29.83,30.91,15.74,0,111.5,13.06,30.69,86.1
"2009-08-23 01:16:00",1175481,5.056,118,1.363,0.163,25.45,111.9015,29.78,30.89,15.64,0,111.5,13.06,30.64,80.0
"2009-08-23 01:16:30",1175482,4.926,120.2,1.1,0.074,25.48,111.8957,29.77,30.86,15.62,0,111.5,13.06,30.62,82.2
"2009-08-23 01:17:00",1175483,4.882,121.3,1.915,0.096,25.5,111.8947,29.77,30.83,15.64,0,111.5,13.06,30.62,83.3
"2009-08-23 01:17:30",1175484,5.077,119.8,1.312,0.113,25.51,111.882,29.73,30.82,15.6,0,111.5,13.06,30.59,81.8
"2009-08-23 01:18:00",1175485,5.235,119.8,0.985,0.105,25.51,111.8712,29.71,30.8,15.64,0,111.5,13.06,30.56,81.8
"2009-08-23 01:18:30",1175486,5.415,118.1,2.236,0.125,25.52,111.8678,29.7,30.78,15.62,0,111.4,13.05,30.55,80.1
"2009-08-23 01:19:00",1175487,5.296,117.5,1.264,0.132,25.54,111.8661,29.69,30.76,15.61,0,111.4,13.06,30.55,79.5
"2009-08-23 01:19:30",1175488,5.174,119.2,1.04,0.088,25.58,111.8518,29.66,30.73,15.68,0,111.4,13.05,30.51,81.2
"2009-08-23 01:20:00",1175489,5.382,118.5,0.824,0.106,25.56,111.842,29.63,30.72,15.67,0,111.4,13.05,30.49,80.5
"2009-08-23 01:20:30",1175490,5.726,117.8,1.343,0.169,25.46,111.8368,29.62,30.7,16.53,0,111.4,13.05,30.47,79.8
"2009-08-23 01:21:00",1175491,5.851,119.6,0.951,0.096,25.46,111.8363,29.62,30.67,18.08,0,111.4,13.05,30.47,81.6
"2009-08-23 01:21:30",1175492,6.115,124.3,1.623,0.142,25.47,111.8367,29.62,30.66,17.98,0,111.4,13.05,30.47,86.3
"2009-08-23 01:22:00",1175493,6.018,124.8,1.196,0.114,25.49,111.8242,29.58,30.64,18.5,0,111.4,13.06,30.44,86.8
"2009-08-23 01:22:30",1175494,5.984,124,0.929,0.101,25.43,111.8107,29.55,30.63,18.89,0,111.4,13.06,30.41,86.0
"2009-08-23 01:23:00",1175495,6.029,122.3,1.107,0.203,25.5,111.8102,29.55,30.6,19.05,0,111.4,13.06,30.40,84.3
"2009-08-23 01:23:30",1175496,5.772,126,1.738,0.135,25.46,111.8004,29.52,30.58,19.01,0,111.4,13.06,30.38,88.0
"2009-08-23 01:24:00",1175497,5.613,119.9,2.066,0.117,25.45,111.7844,29.48,30.56,18.9,0,111.4,13.06,30.34,81.9
"2009-08-23 01:24:30",1175498,5.333,121.7,1.392,0.132,25.42,111.7769,29.46,30.55,19.09,0,111.4,13.06,30.32,83.7
"2009-08-23 01:25:00",1175499,5.355,126.9,2.836,0.143,25.48,111.7766,29.46,30.52,18.81,0,111.4,13.06,30.32,88.9
"2009-08-23 01:25:30",1175500,5.484,129.2,1.415,0.121,25.53,111.7662,29.44,30.51,18.73,0,111.4,13.06,30.29,91.2
"2009-08-23 01:26:00",1175501,5.057,128.7,1.58,0.178,25.56,111.7517,29.4,30.49,18.52,0,111.4,13.07,30.25,90.7
"2009-08-23 01:26:30",1175502,5.199,131.8,1.033,0.142,25.56,111.7441,29.38,30.48,18.91,0,111.4,13.07,30.23,93.8
"2009-08-23 01:27:00",1175503,5.297,133.1,1.257,0.091,25.52,111.7442,29.38,30.46,19.66,0,111.4,13.07,30.23,95.1
"2009-08-23 01:27:30",1175504,5.347,135.2,0.861,0.083,25.46,111.7465,29.39,30.43,19.78,0,111.4,13.07,30.24,97.2
"2009-08-23 01:28:00",1175505,5.417,137.6,1.342,0.151,25.51,111.7326,29.35,30.42,19.57,0,111.4,13.07,30.20,99.6
"2009-08-23 01:28:30",1175506,5.367,137.5,1.293,0.095,25.54,111.7199,29.32,30.42,19.33,0,111.4,13.07,30.17,99.5
"2009-08-23 01:29:00",1175507,5.419,137.4,0.84,0.109,25.54,111.7154,29.31,30.39,19.35,0,111.4,13.07,30.16,99.4
"2009-08-23 01:29:30",1175508,5.496,136.5,0.802,0.147,25.52,111.7137,29.3,30.38,19.14,0,111.4,13.07,30.15,98.5
"2009-08-23 01:30:00",1175509,5.09,136.6,1.66,0.121,25.46,111.7185,29.31,30.37,19.18,0,111.4,13.07,30.17,98.6
"2009-08-23 01:30:30",1175510,5.048,139.6,2.398,0.111,25.43,111.7186,29.31,30.35,19.08,0,111.4,13.07,30.17,101.6
"2009-08-23 01:31:00",1175511,5.19,143.1,1.023,0.073,25.5,111.7096,29.29,30.33,19.06,0,111.4,13.07,30.14,105.1
"2009-08-23 01:31:30",1175512,5.031,143.9,0.958,0.093,25.57,111.7088,29.29,30.31,18.79,0,111.4,13.07,30.14,105.9
"2009-08-23 01:32:00",1175513,4.807,146.3,1.535,0.097,25.54,111.7044,29.28,30.31,18.83,0,111.4,13.07,30.13,108.3
"2009-08-23 01:32:30",1175514,4.858,143.9,0.425,0.135,25.53,111.7038,29.28,30.29,18.94,0,111.4,13.07,30.13,105.9
"2009-08-23 01:33:00",1175515,4.841,143.9,1.229,0.097,25.52,111.7033,29.27,30.27,18.9,0,111.4,13.07,30.13,105.9
"2009-08-23 01:33:30",1175516,4.789,145.4,1.271,0.121,25.53,111.6993,29.26,30.26,19.03,0,111.4,13.07,30.12,107.4
"2009-08-23 01:34:00",1175517,4.767,145.3,0.928,0.043,25.52,111.6865,29.23,30.26,18.89,0,111.4,13.07,30.08,107.3
"2009-08-23 01:34:30",1175518,4.725,144.5,0.408,0.044,25.5,111.682,29.22,30.26,18.9,0,111.4,13.07,30.07,106.5
"2009-08-23 01:35:00",1175519,4.734,144.7,0.582,0.045,25.49,111.6813,29.22,30.23,18.89,0,111.4,13.07,30.07,106.7
"2009-08-23 01:35:30",1175520,4.693,145.9,0.503,0.058,25.54,111.6786,29.21,30.22,18.86,0,111.4,13.07,30.06,107.9
"2009-08-23 01:36:00",1175521,4.68,146,0.839,0.071,25.54,111.6792,29.21,30.2,18.81,0,111.4,13.07,30.07,108.0
"2009-08-23 01:36:30",1175522,4.873,143.1,1.486,0.08,25.6,111.6796,29.21,30.22,18.82,0,111.4,13.07,30.07,105.1
"2009-08-23 01:37:00",1175523,4.664,141.6,1.642,0.192,25.63,111.6782,29.21,30.21,18.97,0,111.4,13.07,30.06,103.6
"2009-08-23 01:37:30",1175524,4.562,143.8,0.946,0.066,25.55,111.6723,29.19,30.18,18.85,0,111.4,13.07,30.05,105.8
"2009-08-23 01:38:00",1175525,4.805,143.9,0.601,0.133,25.53,111.6633,29.17,30.19,18.61,0,111.4,13.07,30.02,105.9
"2009-08-23 01:38:30",1175526,5.038,144.3,0.717,0.055,25.63,111.6557,29.15,30.17,18.36,0,111.4,13.07,30.01,106.3
"2009-08-23 01:39:00",1175527,5.173,144,0.698,0.047,25.58,111.6543,29.15,30.15,18.33,0,111.4,13.07,30.00,106.0
"2009-08-23 01:39:30",1175528,5.242,146.7,0.859,0.067,25.51,111.6524,29.14,30.16,18.28,0,111.4,13.07,30.00,108.7
"2009-08-23 01:40:00",1175529,5.286,146.8,0.736,0.072,25.47,111.6473,29.13,30.15,18.3,0,111.3,13.07,29.98,108.8
"2009-08-23 01:40:30",1175530,5.344,145.8,1.247,0.097,25.5,111.6462,29.13,30.14,18.38,0,111.4,13.07,29.98,107.8
"2009-08-23 01:41:00",1175531,5.487,145,0.673,0.05,25.58,111.6459,29.13,30.15,18.46,0,111.3,13.08,29.98,107.0
"2009-08-23 01:41:30",1175532,5.503,145.5,0.504,0.047,25.57,111.6456,29.13,30.13,18.45,0,111.3,13.08,29.98,107.5
"2009-08-23 01:42:00",1175533,5.77,145.2,0.727,0.137,25.5,111.6451,29.12,30.13,18.39,0,111.3,13.08,29.98,107.2
"2009-08-23 01:42:30",1175534,5.961,148.3,1.592,0.065,25.44,111.6443,29.12,30.12,18.4,0,111.3,13.08,29.98,110.3
"2009-08-23 01:43:00",1175535,6.142,152.3,0.864,0.07,25.41,111.6398,29.11,30.13,18.84,0,111.3,13.08,29.96,114.3
"2009-08-23 01:43:30",1175536,6.277,149.3,2.313,0.153,25.28,111.6332,29.09,30.12,19.33,0,111.3,13.08,29.95,111.3
"2009-08-23 01:44:00",1175537,7.513,158.5,2.78,0.325,25.25,111.6238,29.07,30.12,19.7,0,111.3,13.08,29.92,120.5
"2009-08-23 01:44:30",1175538,7.474,158.2,1.677,0.213,25.29,111.626,29.08,30.11,19.93,0,111.3,13.08,29.93,120.2
"2009-08-23 01:45:00",1175539,7.09,162.1,2.012,0.205,25.33,111.6235,29.07,30.1,19.84,0,111.3,13.08,29.92,124.1
"2009-08-23 01:45:30",1175540,7.714,164.7,2.019,0.175,25.35,111.6276,29.08,30.09,20.49,0,111.3,13.08,29.93,126.7
"2009-08-23 01:46:00",1175541,8.05,168.5,1.78,0.351,25.38,111.6293,29.08,30.07,20.41,0,111.3,13.08,29.94,130.5
"2009-08-23 01:46:30",1175542,7.886,171.1,1.376,0.517,25.36,111.6229,29.07,30.06,20.8,0,111.3,13.08,29.92,133.1
"2009-08-23 01:47:00",1175543,7.649,169.6,3.635,0.28,25.29,111.6109,29.04,30.06,21.87,0,111.3,13.08,29.89,131.6
"2009-08-23 01:47:30",1175544,7.859,172.5,2.779,0.39,25.29,111.6043,29.02,30.04,22.09,0,111.3,13.08,29.87,134.5